Showing default

YAOGAN-30 AA, 48860

Orbit data source: Space-Track

YAOGAN-30 AA, 48860 is a payload satellite owned by PLA SSF (CN) in LEO that was launched on Fri, 18 Jun 2021 UTC via a CHANG ZHENG 2C launch vehicle from the Xichang Space Center, China (XSC). Payload-class satellites include a variety of spacecraft equipped with specific instruments for various scientific and technological missions. These include communications satellites like Starlink; space stations such as the ISS; scientific satellites like the Hubble; Earth observation satellites from companies like Planet Labs, Umbra, and HawkEye 360; GPS; miniature CubeSats for education and research; and military/defense satellites.

Loading next visibility...
Identifier
48860, 2021-055A
Orbit
LEO
Country
Flag of CNCN / PRC
Related business
Manufacturer
SECM
Mission
Operational Defense Sigint
Bus & Motor
Unknown
Mass
~500 kg wet, ~500 kg dry
Launch date (UTC)
2021-06-18 (5 years ago)
Launch vehicle
CHANG ZHENG 2C
Launch site
Xichang Space Center, China (XSC)
Object type
Payload
Rocket body
Debris
Shape & HBR
Box + 2 Pan, 0.5 m
Radar Cross Section
0.446 m², Large (>1 m²)

Expand to show TLE details & history
Last TLE update: 1 day ago

TLE from 1 day ago
0 YAOGAN-30 AA
1 48860U 21055A   26172.32236146  .00001630  00000-0  12188-3 0  9997
2 48860  34.9944 127.0333 0002647 112.9566 247.1421 15.02687966273800
Epoch: 2026-06-21T07:44Z
TLE epoch observation values (Epoch: 2026-06-21T07:44:12.030Z)
Latitude
-0.00004°
Longitude
101.45882°
Altitude
558.242 km
Speed
7.584 km/s
True Right ascension
08h 28m 07s
True Declination
0° 00' 00"
Sunlit
Object was in daylight at epoch
Visualization orbit readout
Latitude
Unknown
Longitude
Unknown
Altitude
Unknown
Speed
Unknown
Apparent Right ascension
Unknown
Apparent Declination
Unknown
Sunlit
N/A
Visualization observer readout
Local Sidereal Time
21:35:45
Azimuth
Unknown
Elevation
Unknown
Doppler factor
Unknown
Orbital elements
Apogee altitude
563.671 km
Perigee altitude
559.997 km
Semi-major axis
6,939.971 km
Eccentricity
0.00026
Inclination
34.9944°
RAAN
127.0333°
Arg. of periapsis
112.9566°
True anomaly
247.11415°
Mean anomaly
247.1421°
Eccentric anomaly
247.12813°
Mean motion
3.75411 °/min
Orbital period
95.89 mins
BSTAR
0.00012188
Loading maneuver chart data...
Computing Atmospheric mass density...
Loading historical data...
Loading historical data...
Loading historical data...
Loading historical data...
Loading historical data...
Loading historical data...
Loading historical data...
Other satellites on launch #55 in the year 2021 (2021-06-18 UTC)

Documentation

Showing up to 5 results
|